Weather Roundup
Issued by NWS Chicago, IL

Home | Current Version | Previous Version | Text Only | Print | Product List | Glossary Off
Versions: 1 2 3 4 5 6 7 8 9 10 11 12 13 14 15 16 17 18 19 20 21 22 23 24 25 26 27 28 29 30 31 32 33 34 35 36 37 38 39 40 41 42 43 44 45 46 47 48 49 50

000
NZUS59 KLOT 242110
HRRLOT

CHICAGO AREA WEATHER ROUNDUP
NATIONAL WEATHER SERVICE CHICAGO/ROMEOVILLE IL
400 PM CDT THU APR 24 2014

NOTE: "FAIR" INDICATES FEW OR NO CLOUDS BELOW 12,000 FEET WITH NO
SIGNIFICANT WEATHER AND/OR OBSTRUCTIONS TO VISIBILITY.

* THESE STATIONS ARE NOT UNDER NWS QUALITY CONTROL. THEY ALSO MAY NOT
  REPORT WEATHER SUCH AS PRECIPITATION OR FOG.

ILZ005-006-012>014-019>023-242200-
NORTHEAST ILLINOIS

CITY           SKY/WX    TMP DP  RH WIND       PRES   REMARKS
OHARE          CLOUDY    63  30  28 SE25G32   29.77F
MIDWAY         CLOUDY    63  31  30 SE21G31   29.78F
AURORA         PTSUNNY   65  36  34 SE21G30   29.75F
LANSING*       CLOUDY    62  29  28 SE17G24   29.82F
JOLIET*        PTSUNNY   64  33  31 SE14G28   29.76F
WAUKEGAN       CLOUDY    55  30  38 SE15G25   29.79F
DUPAGE AIRPORT PTSUNNY   64  32  30 SE24G33   29.74F
WHEELING       CLOUDY    63  31  30 SE21G37   29.78F
KANKAKEE*      PTSUNNY   66  37  35 SE18G28   29.77F
MORRIS*        PTSUNNY   67  28  23 SE20G32   29.72F
LEWIS AIRPORT* PTSUNNY   64  32  31 SE23G33   29.74F
NORTHERLY IS     N/A     57  39  51 SE14        N/A
$$

WIZ051-052-058>065-066-070>072-242200-
SOUTHEAST WISCONSIN

CITY           SKY/WX    TMP DP  RH WIND       PRES   REMARKS
MILWAUKEE      CLOUDY    50  31  48 SE17      29.84F
KENOSHA*       CLOUDY    57  31  37 SE14G22   29.81F
RACINE*        CLOUDY    51  30  44 SE18G25   29.84F
BURLINGTON       N/A     56  33  41 MISG      29.78F
WAUKESHA       CLOUDY    52  30  43 E16G24    29.81F
WEST BEND      DRIZZLE   45  32  61 E12       29.83F
$$

INZ001>003-010>013-019-020-242200-
NORTHWEST INDIANA

CITY           SKY/WX    TMP DP  RH WIND       PRES   REMARKS
GARY*          CLOUDY    64  27  24 SE17G32   29.83F
MICHIGAN CITY* NOT AVBL
RENSSELAER*    NOT AVBL
VALPARAISO     CLOUDY    61  22  22 SE16G30   29.85F
$$

LMZ740>746-242200-
SOUTHERN LAKE MICHIGAN

STATION/POSITION TIME  SKY/WX   TEMP WIND        PRES    VSBY
                                AIR  DIR/SP/G
                 (UTC)          (F)  (DEG/KT/KT) (MB)    (MI)
HARRISON CRIB    2100            53  150/ 21/ 24   N/A
BURNHAM HARBOR   2100            55  130/ 13/ 17   N/A
CALUMET HARBOR   2000            61  140/ 18/ 28 1010.8F
BURNS HARBOR     NOT AVBL
MICHIGAN CITY    2100            60  110/ 17/ 25   N/A
$$

ABBREVIATIONS USED IN REMARKS
   TC - TEMPERATURE IN CELSIUS
  WCI - WIND CHILL INDEX
   HX - HEAT INDEX
  VSB - VISIBILITY
$$


USA.gov is the U.S. government's official web portal to all federal, state and local government web resources and services.